Weather History for Crestview, FL

Change the Weather History Date:

Tuesday, February 5, 2013

  Actual Average Record
Temperature  
Mean Temperature 59 °F -  
Max Temperature 66 °F - - ()
Min Temperature 52 °F - - ()
Degree Days  
Heating Degree Days 6    
Growing Degree Days 9 (Base 50)    
Moisture  
Dew Point 56 °F    
Average Humidity 95    
Maximum Humidity 100    
Minimum Humidity 71    
Precipitation  
Precipitation 0.27 in - - ()
Sea Level Pressure  
Sea Level Pressure 30.02 in    
Wind  
Wind Speed 3 mph (ENE)    
Max Wind Speed 8 mph    
Max Gust Speed -    
Visibility 10 miles    
Events Rain    
T = Trace of Precipitation, MM = Missing Value Source: NWS Daily Summary

Daily Weather History Graph

Daily Weather History Graph

Search for Another Location

Airport:

Trip Planner

Search our weather history database for the weather conditions in past years. The results will help you decide how hot, cold, wet, or windy it might be!

Date:

Astronomy

Feb. 05, 2013 Rise Set
Actual Time 6:34 AM CST 5:26 PM CST
Civil Twilight 6:09 AM CST 5:51 PM CST
Nautical Twilight 5:40 AM CST 6:19 PM CST
Astronomical Twilight 5:12 AM CST 6:48 PM CST
Moon 2:08 AM CST (2/5) 12:50 PM CST (2/5)
Length of Visible Light 11h 41m
Length of Day
10h 51m
Waning Crescent, 26% of the Moon is Illuminated
Feb 5
Waning Crescent
Feb 10
New
Feb 17
First Quarter
Feb 25
Full
Mar 4
Last Quarter

Hourly Weather History & Observations

Time (CST) Temp. Dew Point Humidity Pressure Visibility Wind Dir Wind Speed Gust Speed Precip Events Conditions
12:56 AM 53.6 °F 53.6 °F 100% 30.00 in 10.0 mi North 4.6 mph - N/A Rain Light Rain
12:58 AM 53.6 °F 53.6 °F 100% 30.00 in 10.0 mi Variable 3.5 mph - N/A Rain Light Rain
1:21 AM 53.6 °F 53.6 °F 100% 30.00 in 10.0 mi North 2.3 mph - N/A   Partly Cloudy
1:31 AM 53.6 °F 53.6 °F 100% 30.00 in 10.0 mi NNW 2.3 mph - N/A Rain Light Rain
1:58 AM 53.4 °F 52.3 °F 96% 30.00 in 10.0 mi North 2.3 mph - 0.00 in Rain Light Rain
2:58 AM 53.1 °F 52.2 °F 97% 30.00 in 10.0 mi Calm Calm - 0.04 in Rain Light Rain
3:58 AM 53.1 °F 52.2 °F 97% 30.00 in 10.0 mi North 1.2 mph - 0.03 in Rain Light Rain
4:58 AM 52.9 °F 52.3 °F 98% 30.00 in 10.0 mi Calm Calm - 0.01 in Rain Light Rain
5:58 AM 53.1 °F 52.9 °F 99% 30.02 in 10.0 mi Calm Calm - 0.05 in Rain Light Rain
6:58 AM 53.6 °F 53.2 °F 99% 30.02 in 10.0 mi SE 5.8 mph - 0.01 in Rain Light Rain
7:26 AM 53.6 °F 53.6 °F 100% 30.03 in 10.0 mi North 2.3 mph - N/A   Partly Cloudy
7:34 AM 53.6 °F 53.6 °F 100% 30.03 in 10.0 mi NE 1.2 mph - N/A Rain Light Rain
7:48 AM 53.6 °F 53.6 °F 100% 30.04 in 10.0 mi North 2.3 mph - N/A   Clear
7:58 AM 54.3 °F 53.8 °F 98% 30.04 in 10.0 mi ENE 2.3 mph - 0.00 in   Partly Cloudy
8:55 AM 55.9 °F 54.9 °F 96% 30.05 in 10.0 mi SSE 2.3 mph - 0.00 in   Light Drizzle
9:55 AM 57.4 °F 56.1 °F 96% 30.06 in 10.0 mi Variable 3.5 mph - 0.00 in   Overcast
10:07 AM 57.2 °F 55.4 °F 94% 30.05 in 10.0 mi East 2.3 mph - N/A Rain Light Rain
10:34 AM 59.0 °F 57.2 °F 94% 30.04 in 10.0 mi East 4.6 mph - N/A   Mostly Cloudy
10:55 AM 60.1 °F 56.5 °F 88% 30.04 in 10.0 mi East 3.5 mph - 0.00 in   Overcast
11:55 AM 63.3 °F 56.5 °F 78% 30.03 in 10.0 mi SE 3.5 mph - 0.00 in   Mostly Cloudy
12:55 PM 66.2 °F 56.7 °F 71% 30.00 in 10.0 mi Variable 5.8 mph - 0.00 in Rain Light Rain
1:10 PM 66.2 °F 57.2 °F 73% 30.00 in 10.0 mi ESE 3.5 mph - N/A   Light Drizzle
1:55 PM 64.2 °F 59.4 °F 84% 29.99 in 10.0 mi ESE 4.6 mph - 0.01 in Rain Light Rain
2:57 PM 61.9 °F 59.5 °F 92% 29.99 in 4.0 mi ESE 8.1 mph - 0.03 in Rain Rain
3:29 PM 60.8 °F 60.8 °F 100% 29.98 in 3.0 mi ESE 4.6 mph - N/A Rain Light Rain
3:55 PM 61.2 °F 60.1 °F 96% 29.98 in 3.0 mi East 8.1 mph - 0.08 in Rain Light Rain
4:55 PM 60.4 °F 59.4 °F 96% 29.99 in 10.0 mi ENE 4.6 mph - 0.01 in   Overcast
5:15 PM 60.8 °F 59.0 °F 94% 29.98 in 10.0 mi ENE 4.6 mph - N/A Rain Light Rain
5:27 PM 60.8 °F 59.0 °F 94% 29.99 in 10.0 mi East 4.6 mph - N/A Rain Light Rain
5:44 PM 60.8 °F 59.0 °F 94% 29.99 in 10.0 mi ENE 6.9 mph - N/A   Overcast
5:55 PM 59.7 °F 58.6 °F 96% 30.00 in 10.0 mi ENE 5.8 mph - N/A   Overcast
6:24 PM 59.0 °F 59.0 °F 100% 29.99 in 10.0 mi East 3.5 mph - N/A   Overcast
6:55 PM 59.2 °F 58.5 °F 97% 30.01 in 10.0 mi ENE 5.8 mph - N/A   Overcast
7:55 PM 58.1 °F 56.7 °F 95% 30.02 in 10.0 mi ENE 5.8 mph - N/A   Mostly Cloudy
8:36 PM 57.2 °F 57.2 °F 100% 30.01 in 10.0 mi Variable 3.5 mph - N/A   Overcast
8:55 PM 58.1 °F 55.8 °F 92% 30.03 in 10.0 mi East 4.6 mph - N/A   Mostly Cloudy
9:55 PM 57.6 °F 55.9 °F 94% 30.04 in 10.0 mi NE 3.5 mph - N/A   Overcast
10:55 PM 57.2 °F 56.1 °F 96% 30.05 in 10.0 mi Calm Calm - N/A   Overcast
11:25 PM 57.2 °F 55.4 °F 94% 30.04 in 10.0 mi NE 3.5 mph - N/A   Overcast
11:55 PM 56.8 °F 56.3 °F 98% 30.05 in 10.0 mi NNE 4.6 mph - N/A   Overcast
11:57 PM 57.2 °F 55.4 °F 94% 30.04 in 10.0 mi NNE 3.5 mph - N/A   Overcast